• In Uzbekistan
  • List of Countries
  • For 7 days
  • Water Temperature
  • Satellite Maps
  • Weather Map
  • Weather Widgets
  • user-avatar
    Login

    Hourly Weather Hrazdan

    Today, 16 January, Monday

    Time Temperature Precipitation Wind Pressure Humidity
    00:00 -11°C° 0 mm 1 mps 607 mmHg 90%
    01:00 -11°C° 0 mm 1 mps 607 mmHg 91%
    02:00 -12°C° 0 mm 1 mps 607 mmHg 91%
    03:00 -14°C° 0 mm 1 mps 606 mmHg 92%
    04:00 -14°C° 0 mm 1 mps 606 mmHg 92%
    05:00 -14°C° 0 mm 1 mps 606 mmHg 93%
    06:00 -14°C° 0 mm 1 mps 607 mmHg 93%
    07:00 -12°C° 0 mm 1 mps 608 mmHg 92%
    08:00 -9°C° 0 mm 1 mps 609 mmHg 91%
    09:00 -7°C° 0 mm 1 mps 611 mmHg 90%
    10:00 -4°C° 0 mm 1 mps 611 mmHg 89%
    11:00 -3°C° 0 mm 1 mps 612 mmHg 88%
    12:00 -1°C° 0 mm 1 mps 612 mmHg 87%
    13:00 -1°C° 0 mm 1 mps 612 mmHg 88%
    14:00 -1°C° 0 mm 1 mps 612 mmHg 89%
    15:00 0°C° 0 mm 1 mps 612 mmHg 90%
    16:00 -4°C° 0 mm 1 mps 610 mmHg 91%
    17:00 -8°C° 0 mm 1 mps 609 mmHg 93%
    18:00 -11°C° 0 mm 1 mps 608 mmHg 95%
    19:00 -12°C° 0 mm 1 mps 608 mmHg 94%
    20:00 -12°C° 0 mm 1 mps 608 mmHg 94%
    21:00 -12°C° 0 mm 1 mps 608 mmHg 94%
    22:00 -12°C° 0 mm 1 mps 608 mmHg 93%
    23:00 -12°C° 0 mm 1 mps 608 mmHg 93%

    Tomorrow, 17 January, Tuesday

    Time Temperature Precipitation Wind Pressure Humidity
    00:00 -12°C° 0 mm 1 mps 608 mmHg 93%
    01:00 -12°C° 0 mm 1 mps 608 mmHg 93%
    02:00 -12°C° 0 mm 1 mps 609 mmHg 93%
    03:00 -11°C° 0 mm 1 mps 609 mmHg 92%
    04:00 -11°C° 0 mm 1 mps 609 mmHg 92%
    05:00 -11°C° 0 mm 1 mps 609 mmHg 92%
    06:00 -10°C° 0 mm 1 mps 610 mmHg 92%
    07:00 -9°C° 0 mm 1 mps 611 mmHg 91%
    08:00 -7°C° 0 mm 1 mps 612 mmHg 90%
    09:00 -4°C° 0 mm 1 mps 613 mmHg 89%
    10:00 -3°C° 0 mm 1 mps 613 mmHg 88%
    11:00 -1°C° 0 mm 1 mps 613 mmHg 86%
    12:00 0°C° 0 mm 1 mps 613 mmHg 85%
    13:00 0°C° 0 mm 1 mps 613 mmHg 86%
    14:00 0°C° 0 mm 1 mps 613 mmHg 87%
    15:00 0°C° 0 mm 1 mps 613 mmHg 88%
    16:00 -3°C° 0 mm 1 mps 611 mmHg 90%
    17:00 -7°C° 0 mm 1 mps 610 mmHg 93%
    18:00 -10°C° 0 mm 1 mps 609 mmHg 95%
    19:00 -10°C° 0 mm 1 mps 609 mmHg 94%
    20:00 -10°C° 0 mm 1 mps 609 mmHg 93%
    21:00 -10°C° 0 mm 1 mps 609 mmHg 93%
    22:00 -11°C° 0 mm 1 mps 609 mmHg 92%
    23:00 -11°C° 0 mm 1 mps 609 mmHg 92%

    Day after tomorrow, 18 January, Wednesday

    Time Temperature Precipitation Wind Pressure Humidity
    00:00 -11°C° 0 mm 1 mps 609 mmHg 92%
    01:00 -11°C° 0 mm 1 mps 609 mmHg 92%
    02:00 -11°C° 0 mm 1 mps 609 mmHg 92%
    03:00 -11°C° 0 mm 1 mps 609 mmHg 92%
    04:00 -10°C° 0 mm 1 mps 609 mmHg 92%
    05:00 -10°C° 0 mm 1 mps 609 mmHg 92%
    06:00 -9°C° 0 mm 1 mps 610 mmHg 91%
    07:00 -7°C° 0 mm 1 mps 610 mmHg 90%
    08:00 -6°C° 0 mm 1 mps 611 mmHg 89%
    09:00 -3°C° 0 mm 1 mps 612 mmHg 88%
    10:00 -2°C° 0 mm 1 mps 612 mmHg 87%
    11:00 -1°C° 0 mm 1 mps 612 mmHg 86%
    12:00 +1°C° 0 mm 1 mps 613 mmHg 84%
    13:00 +1°C° 0 mm 1 mps 612 mmHg 86%
    14:00 +1°C° 0 mm 1 mps 612 mmHg 87%
    15:00 +1°C° 0 mm 1 mps 612 mmHg 88%
    16:00 -2°C° 0 mm 1 mps 611 mmHg 90%
    17:00 -4°C° 0 mm 1 mps 610 mmHg 92%
    18:00 -7°C° 0 mm 0 mps 610 mmHg 94%
    19:00 -8°C° 0 mm 1 mps 609 mmHg 93%
    20:00 -9°C° 0 mm 1 mps 609 mmHg 93%
    21:00 -10°C° 0 mm 1 mps 609 mmHg 93%
    22:00 -11°C° 0 mm 1 mps 608 mmHg 92%
    23:00 -11°C° 0 mm 1 mps 608 mmHg 92%

    19 January, Thursday

    Time Temperature Precipitation Wind Pressure Humidity
    00:00 -12°C° 0 mm 1 mps 608 mmHg 91%
    01:00 -12°C° 0 mm 1 mps 608 mmHg 91%
    02:00 -12°C° 0 mm 1 mps 608 mmHg 91%
    03:00 -12°C° 0 mm 1 mps 608 mmHg 91%
    04:00 -12°C° 0 mm 1 mps 608 mmHg 91%
    05:00 -12°C° 0 mm 1 mps 608 mmHg 91%
    06:00 -12°C° 0 mm 1 mps 608 mmHg 91%
    07:00 -10°C° 0 mm 1 mps 610 mmHg 90%
    08:00 -8°C° 0 mm 1 mps 611 mmHg 89%
    09:00 -4°C° 0 mm 1 mps 612 mmHg 88%
    10:00 -3°C° 0 mm 1 mps 612 mmHg 86%
    11:00 -1°C° 0 mm 1 mps 612 mmHg 85%
    12:00 0°C° 0 mm 1 mps 613 mmHg 83%
    13:00 0°C° 0 mm 1 mps 612 mmHg 84%
    14:00 0°C° 0 mm 1 mps 612 mmHg 85%
    15:00 0°C° 0 mm 1 mps 612 mmHg 87%
    16:00 -3°C° 0 mm 1 mps 610 mmHg 89%
    17:00 -7°C° 0 mm 1 mps 609 mmHg 91%
    18:00 -10°C° 0 mm 1 mps 608 mmHg 93%
    19:00 -10°C° 0 mm 1 mps 608 mmHg 92%
    20:00 -10°C° 0 mm 1 mps 608 mmHg 92%
    21:00 -10°C° 0 mm 1 mps 609 mmHg 91%
    22:00 -10°C° 0 mm 1 mps 609 mmHg 91%
    23:00 -10°C° 0 mm 1 mps 609 mmHg 90%

    20 January, Friday

    Time Temperature Precipitation Wind Pressure Humidity
    00:00 -11°C° 0 mm 1 mps 609 mmHg 90%
    01:00 -10°C° 0 mm 1 mps 609 mmHg 90%
    02:00 -10°C° 0 mm 1 mps 609 mmHg 90%
    03:00 -10°C° 0 mm 1 mps 609 mmHg 90%
    04:00 -9°C° 0 mm 1 mps 610 mmHg 90%
    05:00 -9°C° 0 mm 1 mps 610 mmHg 90%
    06:00 -8°C° 0 mm 1 mps 611 mmHg 90%
    07:00 -7°C° 0.1 mm 0 mps 611 mmHg 89%
    08:00 -6°C° 0.1 mm 0 mps 612 mmHg 89%
    09:00 -4°C° 0.1 mm 0 mps 613 mmHg 89%
    10:00 -4°C° 0.2 mm 0 mps 613 mmHg 88%
    11:00 -3°C° 0.2 mm 0 mps 613 mmHg 88%
    12:00 -3°C° 0.2 mm 0 mps 613 mmHg 87%
    13:00 -3°C° 0.3 mm 0 mps 613 mmHg 88%
    14:00 -2°C° 0.3 mm 1 mps 613 mmHg 89%
    15:00 -2°C° 0.3 mm 1 mps 613 mmHg 90%
    16:00 -3°C° 0.2 mm 1 mps 612 mmHg 92%
    17:00 -5°C° 0.2 mm 0 mps 612 mmHg 94%
    18:00 -6°C° 0.2 mm 0 mps 612 mmHg 96%
    19:00 -7°C° 0.2 mm 0 mps 612 mmHg 96%
    20:00 -8°C° 0.2 mm 0 mps 612 mmHg 96%
    21:00 -8°C° 0.2 mm 0 mps 612 mmHg 96%
    22:00 -9°C° 0.1 mm 0 mps 611 mmHg 96%
    23:00 -10°C° 0.1 mm 0 mps 611 mmHg 96%

    21 January, Saturday

    Time Temperature Precipitation Wind Pressure Humidity
    00:00 -11°C° 0.1 mm 0 mps 611 mmHg 96%
    01:00 -12°C° 0 mm 0 mps 610 mmHg 96%
    02:00 -13°C° 0 mm 0 mps 610 mmHg 96%
    03:00 -13°C° 0 mm 0 mps 610 mmHg 96%
    04:00 -14°C° 0 mm 0 mps 609 mmHg 96%
    05:00 -15°C° 0 mm 0 mps 609 mmHg 96%
    06:00 -16°C° 0 mm 0 mps 608 mmHg 96%
    07:00 -13°C° 0 mm 0 mps 610 mmHg 94%
    08:00 -10°C° 0 mm 0 mps 612 mmHg 92%
    09:00 -7°C° 0 mm 0 mps 613 mmHg 89%
    10:00 -6°C° 0 mm 0 mps 614 mmHg 87%
    11:00 -3°C° 0 mm 1 mps 614 mmHg 86%
    12:00 -2°C° 0 mm 1 mps 614 mmHg 84%
    13:00 -2°C° 0 mm 1 mps 614 mmHg 84%
    14:00 -2°C° 0 mm 1 mps 613 mmHg 85%
    15:00 -2°C° 0 mm 1 mps 613 mmHg 86%
    16:00 -6°C° 0 mm 1 mps 612 mmHg 89%
    17:00 -10°C° 0 mm 0 mps 610 mmHg 93%
    18:00 -13°C° 0 mm 0 mps 609 mmHg 96%
    19:00 -14°C° 0 mm 0 mps 609 mmHg 95%
    20:00 -14°C° 0 mm 0 mps 608 mmHg 95%
    21:00 -15°C° 0 mm 0 mps 608 mmHg 94%
    22:00 -15°C° 0 mm 0 mps 608 mmHg 94%
    23:00 -15°C° 0 mm 0 mps 608 mmHg 93%
    Show more